Location: Archamps
(46.1365°N, 6.1329°E)
Time: 12:05:17
(UTC+00:00)

NOSS 3-4 (C) - Pass Details

Date: 28 January 2023
Orbit: 830 x 1382 km, 63.4° (Epoch: 24 March)

Event Time Altitude Azimuth Distance (km) Brightness Sun altitude
Rises 17:36:12 0° 320° (NW) 3,791 6.9 -10.9°
Reaches altitude 10° 17:38:40 10° 318° (NW) 2,909 6.4 -11.3°
Maximum altitude 17:45:39 76° 235° (SW) 1,218 4.1 -12.5°
Drops below altitude 10° 17:53:35 10° 151° (SSE) 3,289 6.1 -13.8°
Sets 17:56:33 0° 150° (SSE) 4,312 6.7 -14.3°
